Previsão horária em Abay

Hoje, 30 Setembro, Quarta-feira

Tempo Temperatura Precipitação Vento Pressão Humidade
00:00 +10°C° 0 mm 4 m/s 718 mmHg 29%
01:00 +8°C° 0 mm 4 m/s 718 mmHg 31%
02:00 +8°C° 0 mm 3 m/s 718 mmHg 33%
03:00 +8°C° 0 mm 3 m/s 718 mmHg 33%
04:00 +8°C° 0 mm 2 m/s 718 mmHg 33%
05:00 +8°C° 0 mm 2 m/s 718 mmHg 33%
06:00 +9°C° 0 mm 2 m/s 718 mmHg 31%
07:00 +10°C° 0 mm 2 m/s 718 mmHg 30%
08:00 +10°C° 0 mm 2 m/s 719 mmHg 28%
09:00 +12°C° 0 mm 1 m/s 719 mmHg 26%
10:00 +13°C° 0 mm 1 m/s 719 mmHg 25%
11:00 +14°C° 0 mm 1 m/s 719 mmHg 24%
12:00 +14°C° 0 mm 1 m/s 719 mmHg 23%
13:00 +15°C° 0 mm 1 m/s 719 mmHg 23%
14:00 +15°C° 0 mm 1 m/s 719 mmHg 22%
15:00 +15°C° 0 mm 1 m/s 719 mmHg 22%
16:00 +15°C° 0 mm 1 m/s 720 mmHg 22%
17:00 +15°C° 0 mm 1 m/s 720 mmHg 22%
18:00 +15°C° 0 mm 1 m/s 720 mmHg 23%
19:00 +14°C° 0 mm 1 m/s 720 mmHg 25%
20:00 +14°C° 0 mm 2 m/s 720 mmHg 27%
21:00 +13°C° 0 mm 2 m/s 720 mmHg 35%
22:00 +12°C° 0 mm 2 m/s 720 mmHg 43%
23:00 +10°C° 0 mm 2 m/s 720 mmHg 51%

Amanhã, 1 Outubro, Quinta-feira

Tempo Temperatura Precipitação Vento Pressão Humidade
00:00 +9°C° 0 mm 2 m/s 719 mmHg 51%
01:00 +9°C° 0 mm 2 m/s 719 mmHg 52%
02:00 +8°C° 0 mm 2 m/s 719 mmHg 53%
03:00 +8°C° 0 mm 2 m/s 719 mmHg 54%
04:00 +7°C° 0 mm 2 m/s 719 mmHg 54%
05:00 +7°C° 0 mm 2 m/s 719 mmHg 55%
06:00 +9°C° 0 mm 1 m/s 719 mmHg 49%
07:00 +10°C° 0 mm 1 m/s 720 mmHg 44%
08:00 +12°C° 0 mm 1 m/s 720 mmHg 38%
09:00 +13°C° 0 mm 2 m/s 720 mmHg 35%
10:00 +15°C° 0 mm 2 m/s 720 mmHg 31%
11:00 +17°C° 0 mm 3 m/s 720 mmHg 27%
12:00 +18°C° 0 mm 3 m/s 719 mmHg 26%
13:00 +19°C° 0 mm 3 m/s 719 mmHg 25%
14:00 +20°C° 0 mm 4 m/s 719 mmHg 24%
15:00 +20°C° 0 mm 4 m/s 719 mmHg 24%
16:00 +19°C° 0 mm 3 m/s 719 mmHg 25%
17:00 +19°C° 0 mm 3 m/s 719 mmHg 25%
18:00 +17°C° 0 mm 3 m/s 719 mmHg 29%
19:00 +14°C° 0 mm 3 m/s 718 mmHg 33%
20:00 +13°C° 0 mm 2 m/s 718 mmHg 36%
21:00 +12°C° 0 mm 2 m/s 718 mmHg 37%
22:00 +10°C° 0 mm 2 m/s 718 mmHg 37%
23:00 +10°C° 0 mm 2 m/s 718 mmHg 38%

Depois de amanhã, 2 Outubro, Sexta-feira

Tempo Temperatura Precipitação Vento Pressão Humidade
00:00 +9°C° 0 mm 2 m/s 717 mmHg 39%
01:00 +10°C° 0 mm 1 m/s 717 mmHg 41%
02:00 +9°C° 0 mm 1 m/s 717 mmHg 42%
03:00 +9°C° 0 mm 1 m/s 717 mmHg 43%
04:00 +8°C° 0 mm 1 m/s 717 mmHg 44%
05:00 +8°C° 0 mm 1 m/s 718 mmHg 44%
06:00 +9°C° 0 mm 1 m/s 718 mmHg 41%
07:00 +10°C° 0 mm 1 m/s 718 mmHg 37%
08:00 +12°C° 0 mm 1 m/s 718 mmHg 33%
09:00 +14°C° 0 mm 1 m/s 718 mmHg 30%
10:00 +16°C° 0 mm 1 m/s 719 mmHg 27%
11:00 +18°C° 0 mm 2 m/s 719 mmHg 24%
12:00 +19°C° 0 mm 2 m/s 718 mmHg 23%
13:00 +20°C° 0 mm 2 m/s 718 mmHg 21%
14:00 +23°C° 0 mm 2 m/s 718 mmHg 20%
15:00 +21°C° 0 mm 2 m/s 718 mmHg 20%
16:00 +21°C° 0 mm 2 m/s 718 mmHg 20%
17:00 +21°C° 0 mm 3 m/s 719 mmHg 20%
18:00 +18°C° 0 mm 2 m/s 719 mmHg 24%
19:00 +16°C° 0 mm 2 m/s 719 mmHg 28%
20:00 +14°C° 0 mm 2 m/s 719 mmHg 31%
21:00 +13°C° 0 mm 2 m/s 718 mmHg 33%
22:00 +12°C° 0 mm 1 m/s 718 mmHg 35%
23:00 +11°C° 0 mm 1 m/s 718 mmHg 37%

3 Outubro, Sábado

Tempo Temperatura Precipitação Vento Pressão Humidade
00:00 +11°C° 0 mm 1 m/s 718 mmHg 38%
01:00 +11°C° 0 mm 1 m/s 718 mmHg 38%
02:00 +10°C° 0 mm 1 m/s 718 mmHg 39%
03:00 +10°C° 0 mm 1 m/s 718 mmHg 40%
04:00 +10°C° 0 mm 1 m/s 718 mmHg 41%
05:00 +10°C° 0 mm 1 m/s 718 mmHg 41%
06:00 +12°C° 0 mm 1 m/s 719 mmHg 39%
07:00 +14°C° 0 mm 1 m/s 719 mmHg 36%
08:00 +15°C° 0 mm 1 m/s 719 mmHg 34%
09:00 +17°C° 0 mm 2 m/s 719 mmHg 29%
10:00 +19°C° 0 mm 2 m/s 719 mmHg 24%
11:00 +21°C° 0 mm 3 m/s 719 mmHg 19%
12:00 +22°C° 0 mm 3 m/s 719 mmHg 18%
13:00 +22°C° 0 mm 3 m/s 719 mmHg 17%
14:00 +23°C° 0 mm 4 m/s 719 mmHg 16%
15:00 +22°C° 0 mm 4 m/s 719 mmHg 16%
16:00 +21°C° 0 mm 3 m/s 719 mmHg 17%
17:00 +21°C° 0 mm 3 m/s 719 mmHg 18%
18:00 +18°C° 0 mm 3 m/s 719 mmHg 21%
19:00 +16°C° 0 mm 2 m/s 719 mmHg 24%
20:00 +14°C° 0 mm 2 m/s 719 mmHg 28%
21:00 +13°C° 0 mm 1 m/s 719 mmHg 29%
22:00 +12°C° 0 mm 1 m/s 719 mmHg 31%
23:00 +10°C° 0 mm 0 m/s 719 mmHg 33%

4 Outubro, Domingo

Tempo Temperatura Precipitação Vento Pressão Humidade
00:00 +10°C° 0 mm 0 m/s 719 mmHg 34%
01:00 +9°C° 0 mm 0 m/s 719 mmHg 35%
02:00 +9°C° 0 mm 0 m/s 719 mmHg 36%
03:00 +10°C° 0 mm 1 m/s 719 mmHg 37%
04:00 +9°C° 0 mm 1 m/s 719 mmHg 38%
05:00 +9°C° 0 mm 1 m/s 719 mmHg 39%
06:00 +11°C° 0 mm 1 m/s 719 mmHg 35%
07:00 +13°C° 0 mm 1 m/s 720 mmHg 30%
08:00 +15°C° 0 mm 1 m/s 720 mmHg 26%
09:00 +18°C° 0 mm 1 m/s 720 mmHg 23%
10:00 +20°C° 0 mm 1 m/s 720 mmHg 21%
11:00 +22°C° 0 mm 1 m/s 720 mmHg 18%
12:00 +23°C° 0 mm 2 m/s 720 mmHg 17%
13:00 +23°C° 0 mm 2 m/s 720 mmHg 16%
14:00 +24°C° 0 mm 2 m/s 720 mmHg 15%
15:00 +24°C° 0 mm 2 m/s 719 mmHg 15%
16:00 +23°C° 0 mm 2 m/s 719 mmHg 16%
17:00 +22°C° 0 mm 3 m/s 719 mmHg 17%
18:00 +19°C° 0 mm 2 m/s 719 mmHg 20%
19:00 +17°C° 0 mm 2 m/s 719 mmHg 24%
20:00 +14°C° 0 mm 2 m/s 719 mmHg 28%
21:00 +13°C° 0 mm 2 m/s 719 mmHg 30%
22:00 +12°C° 0 mm 1 m/s 719 mmHg 32%
23:00 +11°C° 0 mm 1 m/s 719 mmHg 35%

5 Outubro, Segunda-feira

Tempo Temperatura Precipitação Vento Pressão Humidade
00:00 +11°C° 0 mm 1 m/s 719 mmHg 37%
01:00 +10°C° 0 mm 1 m/s 718 mmHg 40%
02:00 +9°C° 0 mm 1 m/s 718 mmHg 42%
03:00 +9°C° 0 mm 1 m/s 718 mmHg 44%
04:00 +8°C° 0 mm 1 m/s 718 mmHg 46%
05:00 +8°C° 0 mm 1 m/s 718 mmHg 48%
06:00 +9°C° 0 mm 1 m/s 719 mmHg 44%
07:00 +11°C° 0 mm 1 m/s 719 mmHg 40%
08:00 +12°C° 0 mm 1 m/s 719 mmHg 36%
09:00 +14°C° 0 mm 2 m/s 719 mmHg 33%
10:00 +16°C° 0 mm 2 m/s 719 mmHg 29%
11:00 +17°C° 0 mm 2 m/s 719 mmHg 26%
12:00 +18°C° 0 mm 3 m/s 719 mmHg 25%
13:00 +19°C° 0 mm 3 m/s 719 mmHg 24%
14:00 +20°C° 0 mm 3 m/s 719 mmHg 22%
15:00 +19°C° 0 mm 3 m/s 719 mmHg 24%
16:00 +18°C° 0 mm 3 m/s 719 mmHg 25%
17:00 +17°C° 0 mm 3 m/s 719 mmHg 27%
18:00 +16°C° 0 mm 3 m/s 719 mmHg 31%
19:00 +14°C° 0 mm 2 m/s 719 mmHg 36%
20:00 +12°C° 0 mm 2 m/s 719 mmHg 40%
21:00 +10°C° 0 mm 2 m/s 719 mmHg 43%
22:00 +11°C° 0 mm 1 m/s 719 mmHg 46%
23:00 +10°C° 0 mm 1 m/s 719 mmHg 49%
Mostrar mais